CW9350 Weather Reports


Display with metric or nautical units.
time (UTC)temp
F
wind
direction
speed
MPH
gust
MPH
rain 1hr
in
rain 24hr
in
rain mn
in
humidity
%
barometer
mb
20260906234531 80 252 0.0 0.0 0.00 0.00 0.00 90 994.9
20260906233031 80 252 0.0 0.0 0.00 0.00 0.00 90 995.2
20260906231531 79 252 0.0 0.0 0.00 0.00 0.00 90 995.3
20260906230029 79 252 0.0 0.0 0.00 0.00 0.00 90 995.7
20260906224527 79 252 0.0 0.0 0.00 0.00 0.00 90 995.9
20260906223029 79 252 0.0 0.0 0.00 0.00 0.00 90 996.0
20260906221536 79 252 1.0 0.0 0.00 0.00 0.00 90 996.0
20260906220029 79 252 1.0 0.0 0.00 0.00 0.00 90 996.2
20260906214528 79 252 4.0 0.0 0.00 0.00 0.00 90 996.1
20260906213024 80 252 2.0 0.0 0.00 0.00 0.00 90 996.0
20260906211523 80 252 0.0 0.0 0.00 0.00 0.00 90 996.3
20260906210023 80 252 0.0 0.0 0.00 0.00 0.00 90 996.1
20260906204521 81 252 3.0 0.0 0.00 0.00 0.00 90 996.4
20260906203030 80 252 5.0 0.0 0.00 0.00 0.00 90 996.7
20260906201519 81 252 2.0 0.0 0.00 0.00 0.00 90 996.8
20260906200018 80 252 0.0 0.0 0.00 0.00 0.00 90 997.1
20260906194514 79 252 0.0 0.0 0.00 0.00 0.00 90 997.6
20260906193014 78 252 0.0 0.0 0.00 0.00 0.00 90 997.7
20260906191514 80 252 1.0 0.0 0.00 0.00 0.00 90 997.8
20260906190012 80 252 0.0 0.0 0.00 0.00 0.00 90 998.2
20260906184510 79 252 5.0 0.0 0.00 0.00 0.00 90 998.6
20260906183021 79 252 3.0 0.0 0.00 0.00 0.00 90 998.4
20260906181514 79 252 3.0 0.0 0.00 0.00 0.00 90 999.0
20260906180003 78 252 1.0 0.0 0.00 0.00 0.00 90 999.4
20260906174559 78 252 3.0 0.0 0.00 0.00 0.00 90 999.5
20260906173055 78 252 3.0 0.0 0.00 0.00 0.00 90 999.9
20260906171551 78 252 0.0 0.0 0.00 0.00 0.00 90 1000.1
20260906170047 77 252 3.0 0.0 0.00 0.00 0.00 90 1000.0
20260906164543 76 252 0.0 0.0 0.00 0.00 0.00 90 1000.1
20260906163041 76 252 0.0 0.0 0.00 0.00 0.00 90 1000.0
20260906161539 75 252 0.0 0.0 0.00 0.00 0.00 90 1000.3
20260906160036 76 252 0.0 0.0 0.00 0.00 0.00 90 1000.3
20260906154531 74 252 0.0 0.0 0.00 0.00 0.00 90 1000.4
20260906153033 73 252 0.0 0.0 0.00 0.00 0.00 90 1000.6
20260906151531 73 252 0.0 0.0 0.00 0.00 0.00 90 1000.8
20260906150021 71 252 0.0 0.0 0.00 0.00 0.00 90 1000.8
20260906144519 69 252 0.0 0.0 0.00 0.00 0.00 90 1000.7
20260906143018 70 252 0.0 0.0 0.00 0.00 0.00 90 1000.7
20260906141521 69 252 0.0 0.0 0.00 0.00 0.00 90 1000.5
20260906140033 65 252 0.0 0.0 0.00 0.00 0.00 90 1000.7
20260906134514 63 252 0.0 0.0 0.00 0.00 0.00 90 1000.5
20260906133014 63 252 0.0 0.0 0.00 0.00 0.00 90 1000.4
20260906131510 61 252 0.0 0.0 0.00 0.00 0.00 90 1000.2
20260906130016 61 252 0.0 0.0 0.00 0.00 0.00 90 999.8
20260906124503 63 252 0.0 0.0 0.00 0.00 0.00 90 999.8
20260906123100 64 252 0.0 0.0 0.00 0.00 0.00 90 999.6
20260906121608 64 252 0.0 0.0 0.00 0.00 0.00 90 999.4
20260906120058 64 252 0.0 0.0 0.00 0.00 0.00 90 999.4
20260906114610 67 252 0.0 0.0 0.00 0.00 0.00 90 999.1
20260906113057 68 252 0.0 0.0 0.00 0.00 0.00 90 999.2
20260906111553 69 252 0.0 0.0 0.00 0.00 0.00 90 999.1
20260906110052 69 252 0.0 0.0 0.00 0.00 0.00 90 999.1
20260906104550 71 252 0.0 0.0 0.00 0.00 0.00 90 999.0
20260906103049 69 252 0.0 0.0 0.00 0.00 0.00 90 998.9
20260906101548 70 252 0.0 0.0 0.00 0.00 0.00 90 998.9
20260906100046 71 252 0.0 0.0 0.00 0.00 0.00 90 998.8
20260906094545 71 252 0.0 0.0 0.00 0.00 0.00 90 998.7
20260906093045 67 252 0.0 0.0 0.00 0.00 0.00 90 998.6
20260906091541 68 252 0.0 0.0 0.00 0.00 0.00 90 998.6
20260906090042 69 252 0.0 0.0 0.00 0.00 0.00 90 998.4
20260906084538 70 252 0.0 0.0 0.00 0.00 0.00 90 998.3
20260906083036 71 252 0.0 0.0 0.00 0.00 0.00 90 998.1
20260906081543 70 252 0.0 0.0 0.00 0.00 0.00 90 998.1
20260906080037 72 252 0.0 0.0 0.00 0.00 0.00 90 998.2
20260906074538 72 252 0.0 0.0 0.00 0.00 0.00 90 998.2
20260906073033 74 252 0.0 0.0 0.00 0.00 0.00 90 998.1
20260906071536 73 252 0.0 0.0 0.00 0.00 0.00 90 998.0
20260906070032 72 252 0.0 0.0 0.00 0.00 0.00 90 997.8
20260906064528 73 252 0.0 0.0 0.00 0.00 0.00 90 997.8
20260906063026 71 252 0.0 0.0 0.00 0.00 0.00 90 997.8
20260906061524 71 252 0.0 0.0 0.00 0.00 0.00 90 997.7
20260906060026 69 252 0.0 0.0 0.00 0.00 0.00 90 997.5
20260906054523 76 252 0.0 0.0 0.00 0.00 0.00 90 997.3
20260906053023 76 252 0.0 0.0 0.00 0.00 0.00 90 997.2
20260906051519 79 252 0.0 0.0 0.00 0.00 0.00 90 997.1
20260906050031 79 252 0.0 0.0 0.00 0.00 0.00 90 997.3
20260906044532 78 252 0.0 0.0 0.00 0.00 0.00 90 997.2
20260906043017 79 252 0.0 0.0 0.00 0.00 0.00 90 997.1
20260906041517 77 252 0.0 0.0 0.00 0.00 0.00 90 997.1
20260906040024 73 252 0.0 0.0 0.00 0.00 0.00 90 997.0
20260906034517 74 252 0.0 0.0 0.00 0.00 0.00 90 996.8
20260906033033 78 252 0.0 0.0 0.00 0.00 0.00 90 996.4
20260906031515 80 252 0.0 0.0 0.00 0.00 0.00 90 996.3
20260906030015 81 252 0.0 0.0 0.00 0.00 0.00 90 996.3
20260906024514 80 252 0.0 0.0 0.00 0.00 0.00 90 996.2
20260906023013 79 252 0.0 0.0 0.00 0.00 0.00 90 996.0
20260906021513 76 252 0.0 0.0 0.00 0.00 0.00 90 996.0
20260906020012 78 252 0.0 0.0 0.00 0.00 0.00 90 996.1
20260906014512 78 252 0.0 0.0 0.00 0.00 0.00 90 996.2
20260906013014 80 252 0.0 0.0 0.00 0.00 0.00 90 996.3
20260906011511 83 252 0.0 0.0 0.00 0.00 0.00 90 996.5
20260906010010 83 252 0.0 0.0 0.00 0.00 0.00 90 996.6
20260906004511 83 252 0.0 0.0 0.00 0.00 0.00 90 996.6
20260906003009 82 252 0.0 0.0 0.00 0.00 0.00 90 996.8
20260906001508 82 252 0.0 0.0 0.00 0.00 0.00 90 996.8
20260906000007 83 252 1.0 0.0 0.00 0.00 0.00 90 997.0